Terminal Aerodrome Forecast
Issued by NWS Mt. Holly, NJ

Home | Current Version | Previous Version | Text Only | Print | Product List | Glossary On
Versions: 1 2 3 4 5 6 7 8 9 10 11 12 13 14 15 16 17 18 19 20 21 22 23 24 25 26 27 28
000
FTUS41 KPHI 262300
TAFTTN
TAF
KTTN 262325Z 2700/2724 04015G20KT 2SM -SN BKN015 OVC025
      TEMPO 2700/2701 1SM -SN OVC010
     FM270100 02020G30KT 1SM -SN OVC006
     FM270300 01020G30KT 1/2SM SN OVC004
     FM271600 35018G28KT 2SM -SN BLSN OVC010
     FM271900 35017G27KT 3SM -SN BLSN OVC015
     FM272300 32015G26KT 6SM -SN BLSN SCT025 BKN080=

USA.gov is the U.S. government's official web portal to all federal, state and local government web resources and services.